[[{"header":{"parameterUnit":"m.s-1","parameterCategory":1,"la1":30.2991,"la2":30.254,"lo1":-89.0895,"lo2":-89.0444,"dy":0.0017,"dx":0.0017,"nx":28,"ny":28,"refTime":"2023-08-05T03:00:00:Z","depth":0,"parameterNumber":2,"parameterNumberName":"U-component_of_WINDS"},"data":[0,0,0,0,0,0,0,0,0,0,0,0,0,0,0,0,0,0,0,0,0,0,0,0,0,0,0,0,0,0,0,0,0,0,0,0,0,0,0,0,0,0,0,0,0,0,0,0,0,0,0,0,0,0,0,0,0,0,3.5187,3.5187,0,3.5218,3.5219,3.5219,3.512,3.5117,3.5114,3.5111,3.5144,3.5148,3.5151,0,0,0,0,0,0,0,0,0,0,0,0,0,3.5039,3.5042,3.5187,3.5187,3.5187,3.5218,3.5219,3.5219,3.512,3.5117,3.5113,3.511,3.5143,3.5147,3.5152,0,0,0,0,0,0,0,0,0,0,0,0,0,3.509,3.5043,3.5186,3.5142,3.5138,3.5218,3.5219,3.5219,3.5121,3.5117,3.5112,3.5108,3.5141,3.5147,3.5152,3.5277,0,0,3.5169,3.5172,0,0,0,0,0,0,0,0,3.5087,3.5095,3.5148,3.5145,3.5141,3.516,3.5178,3.5239,3.5122,3.5128,3.5111,3.5106,3.5153,3.5157,3.5173,3.5278,3.528,3.517,3.5173,3.5175,3.5177,0,0,0,0,0,0,0,3.5084,3.5094,3.5199,3.5149,3.5145,3.512,3.5122,3.5189,3.5166,3.5127,3.512,3.5125,3.515,3.5168,3.5173,3.528,3.5169,3.5174,3.5178,3.518,3.5485,3.549,0,0,0,0,0,0,3.5086,3.5091,3.5198,3.52,3.5102,3.5126,3.5128,3.5159,3.5164,3.5161,3.5129,3.512,3.5161,3.5167,3.5174,3.5318,3.5175,3.518,3.5184,3.5481,3.5486,3.5492,0,0,0,0,0,0,3.5083,3.5097,3.5197,3.5144,3.5154,3.5133,3.5168,3.5162,3.518,3.5166,3.5161,3.5151,3.5158,3.5166,3.5251,3.5318,3.5183,3.5188,3.5475,3.5482,3.5489,3.5608,0,0,0,0,0,0,3.5079,3.5096,3.5144,3.5146,3.5158,3.5274,3.5172,3.5166,3.5189,3.5178,3.5186,3.5183,3.5155,3.5244,3.5257,3.5323,3.5192,3.5469,3.5478,3.5487,3.5598,3.5619,3.5636,0,0,0,0,0,3.5075,3.5177,3.5147,3.516,3.5217,3.5278,3.5285,3.5251,3.5195,3.5242,3.5233,3.5183,3.5309,3.5253,3.5267,3.5336,3.5465,3.5476,3.5486,3.559,3.5615,3.5636,0,0,0,0,0,0,3.5185,3.5177,3.5143,3.5249,3.5265,3.5262,3.532,3.5279,3.5311,3.53,3.5256,3.5258,3.535,3.5352,3.529,3.5455,3.5377,3.5391,3.5451,3.5474,3.5493,3.549,3.5197,0,0,0,0,0,3.5222,3.5272,3.5262,3.5357,3.5366,3.5342,3.5368,3.534,3.5354,3.5361,3.5357,3.5374,3.5416,3.5445,3.5484,3.5598,3.5597,3.5652,3.5671,3.5687,3.5699,3.5756,3.578,3.5527,3.5527,3.5527,0,0,3.5298,3.53,3.5335,3.5379,3.5388,3.544,3.5349,3.5409,3.5447,3.537,3.5449,3.5447,3.5462,3.5561,3.5604,3.5565,3.5768,3.57,3.5713,3.5717,3.577,3.5793,3.5815,3.5534,3.5533,3.5532,0,0,3.5464,3.5471,3.5549,3.5559,3.5573,3.5556,3.5575,3.5577,3.5573,3.5651,3.5594,3.5638,3.5714,3.5725,3.5741,3.5908,3.5862,3.5922,3.6021,3.6077,3.6097,3.6114,3.6171,3.6193,3.5935,3.5935,3.5936,0,3.5557,3.5634,3.5595,3.5658,3.5678,3.561,3.5687,3.5699,3.5726,3.5741,3.5696,3.5787,3.5793,3.5892,3.5932,3.5948,3.5967,3.5921,3.6097,3.6114,3.613,3.6184,3.6206,3.5942,3.5942,3.5941,3.594,0,3.5746,3.58,3.5862,3.5887,3.5914,3.5985,3.5955,3.5987,3.5956,3.5943,3.6023,3.6027,3.6064,3.6085,3.6057,3.618,3.6155,3.6105,3.6025,3.6162,3.6211,3.6232,3.5953,3.595,3.5948,3.5946,0,0,3.5983,3.5984,3.6007,3.6017,3.6026,3.6067,3.6133,3.6168,3.6195,3.6216,3.6269,3.6333,3.6286,3.6304,3.6276,3.6325,3.6454,3.6268,3.6268,3.6301,3.6587,3.6624,3.6648,3.6424,3.6428,3.6431,3.6585,0,3.6144,3.6257,3.6222,3.6336,3.6383,3.6318,3.6375,3.6387,3.6376,3.6414,3.6402,3.6447,3.6383,3.6393,3.6439,3.6429,3.6511,3.6417,3.6471,3.6474,3.6468,3.6675,3.6714,3.686,3.6605,3.6608,3.661,0,3.6347,3.6373,3.6491,3.6489,3.6508,3.656,3.6588,3.6626,3.6637,3.6626,3.6645,3.6605,3.6669,3.659,3.6675,3.6612,3.6632,3.663,3.6635,3.6638,3.6549,3.6681,3.6906,3.6927,3.6641,3.6639,3.6637,0,3.6505,3.657,3.6648,3.6658,3.6659,3.6697,3.6699,3.6705,3.6727,3.6752,3.6766,3.6798,3.6815,3.6841,3.681,3.6756,3.69,3.6819,3.6891,3.6891,3.6923,3.6921,3.7152,3.6939,3.6939,3.6939,3.6938,0,3.6687,3.6761,3.6718,3.6766,3.6846,3.6805,3.6886,3.688,3.6886,3.6931,3.6877,3.692,3.6878,3.6917,3.6894,3.6967,3.6976,3.6968,3.696,3.6971,3.6972,3.6983,3.6971,3.6944,3.6943,3.6942,3.6941,0,3.6877,3.6851,3.6931,3.6925,3.6924,3.6984,3.6977,3.7021,3.7005,3.7063,3.7074,3.705,3.7093,3.7065,3.7109,3.7093,3.7188,3.7168,3.7184,3.7178,3.7251,3.7243,3.7495,3.7525,3.7295,3.7297,3.7299,0,3.6994,3.7049,3.7047,3.7073,3.7078,3.7121,3.7142,3.7104,3.7129,3.7144,3.7185,3.7223,3.7251,3.7322,3.7309,3.7341,3.732,3.7406,3.7325,3.7333,3.7319,3.7315,3.7319,3.7422,3.7425,3.7427,3.7429,0,3.7203,3.7187,3.7221,3.7249,3.7277,3.7298,3.7314,3.7339,3.7299,3.733,3.7373,3.7394,3.7438,3.7476,3.7502,3.7503,3.746,3.7455,3.7472,3.7484,3.749,3.7485,3.7227,3.7449,3.7447,3.7445,3.7444,3.7443,3.7358,3.7403,3.7408,3.7446,3.7454,3.747,3.751,3.7499,3.7533,3.7565,3.754,3.759,3.7597,3.7628,3.7635,3.7673,3.7638,3.7665,3.7671,3.7678,3.7687,3.7485,3.7678,3.7677,3.7677,3.7676,3.7676,0,3.7563,3.7562,3.7598,3.7622,3.7652,3.7607,3.7622,3.765,3.7694,3.7705,3.7733,3.778,3.7816,3.7805,3.7836,3.7869,3.7849,3.7878,3.7875,3.7875,3.7717,3.7698,3.7893,3.7893,3.7893,3.7893,3.7893,3.7893,3.7673,3.7745,3.7729,3.7804,3.7802,3.785,3.7863,3.7877,3.7884,3.7939,3.7968,3.796,3.7961,3.7992,3.8022,3.8018,3.8031,3.8067,3.8055,3.7908,3.7887,3.7866,3.7847,3.8071,3.8071,3.8209,3.8211,3.8212]},{"header":{"parameterUnit":"m.s-1","parameterCategory":1,"la1":30.2991,"la2":30.254,"lo1":-89.0895,"lo2":-89.0444,"dy":0.0017,"dx":0.0017,"nx":28,"ny":28,"refTime":"2023-08-05T03:00:00:Z","depth":0,"parameterNumber":3,"parameterNumberName":"V-component_of_WINDS"},"data":[0,0,0,0,0,0,0,0,0,0,0,0,0,0,0,0,0,0,0,0,0,0,0,0,0,0,0,0,0,0,0,0,0,0,0,0,0,0,0,0,0,0,0,0,0,0,0,0,0,0,0,0,0,0,0,0,0,0,6.0798,6.0799,0,6.086,6.0861,6.0861,6.0803,6.0801,6.0798,6.0796,6.0854,6.0857,6.0861,0,0,0,0,0,0,0,0,0,0,0,0,0,6.0622,6.0626,6.0798,6.0799,6.0799,6.086,6.0861,6.0861,6.0804,6.0801,6.0798,6.0795,6.0853,6.0857,6.0861,0,0,0,0,0,0,0,0,0,0,0,0,0,6.0693,6.0627,6.0798,6.0778,6.0777,6.086,6.0861,6.0862,6.0804,6.0801,6.0797,6.0794,6.0851,6.0857,6.0862,6.0966,0,0,6.0879,6.0881,0,0,0,0,0,0,0,0,6.0689,6.0699,6.078,6.0779,6.0778,6.082,6.082,6.0896,6.0805,6.0794,6.0796,6.0792,6.0845,6.0851,6.087,6.0968,6.0971,6.0879,6.0883,6.0885,6.0887,0,0,0,0,0,0,0,6.0684,6.0696,6.0822,6.0781,6.078,6.0764,6.077,6.0834,6.0838,6.0794,6.079,6.0799,6.0844,6.0865,6.0871,6.0972,6.0879,6.0884,6.0888,6.089,6.1156,6.1159,0,0,0,0,0,0,6.0682,6.0692,6.082,6.0824,6.0724,6.077,6.0776,6.081,6.0837,6.0838,6.0802,6.0796,6.0857,6.0865,6.0873,6.0994,6.0885,6.089,6.0894,6.1152,6.1156,6.116,0,0,0,0,0,0,6.0678,6.0694,6.0818,6.0757,6.0772,6.0776,6.0815,6.0813,6.0834,6.0843,6.0842,6.0823,6.0855,6.0865,6.0943,6.0995,6.0893,6.0898,6.1148,6.1153,6.1158,6.1239,0,0,0,0,0,0,6.0674,6.0693,6.0734,6.0759,6.0775,6.0889,6.0818,6.0817,6.0845,6.0838,6.0862,6.0863,6.0853,6.0935,6.0948,6.1001,6.0902,6.1143,6.115,6.1157,6.1232,6.1247,6.1259,0,0,0,0,0,6.0668,6.0754,6.0737,6.0752,6.0827,6.0892,6.0902,6.089,6.0849,6.0889,6.0894,6.0862,6.0988,6.0943,6.0958,6.1013,6.1139,6.1148,6.1156,6.1225,6.1244,6.1259,0,0,0,0,0,0,6.0733,6.0757,6.0738,6.0835,6.0863,6.0883,6.0933,6.091,6.0948,6.0939,6.0921,6.0927,6.1009,6.1019,6.0969,6.1114,6.1057,6.1068,6.1104,6.1122,6.1135,6.113,6.0907,0,0,0,0,0,6.076,6.0813,6.0829,6.0913,6.0928,6.0928,6.0956,6.0945,6.0972,6.0982,6.0993,6.1019,6.1063,6.1093,6.1135,6.1233,6.1236,6.1278,6.1292,6.1303,6.1313,6.1363,6.1381,6.1188,6.1188,6.1188,0,0,6.0813,6.0833,6.0867,6.0927,6.0947,6.1,6.0938,6.0998,6.1036,6.099,6.1065,6.1074,6.1101,6.1189,6.1228,6.1199,6.1367,6.1314,6.1323,6.1327,6.1374,6.1392,6.1408,6.1194,6.1193,6.1192,0,0,6.0938,6.096,6.1031,6.1052,6.1084,6.1083,6.11,6.1124,6.1129,6.1204,6.117,6.1214,6.1293,6.1313,6.1333,6.1465,6.1436,6.1479,6.1551,6.16,6.1615,6.1629,6.1674,6.169,6.1489,6.1489,6.1489,0,6.1001,6.1082,6.107,6.1132,6.1157,6.1121,6.1191,6.1212,6.1254,6.1272,6.124,6.1337,6.1353,6.1444,6.1476,6.1494,6.1511,6.1475,6.1615,6.1628,6.164,6.1683,6.17,6.1494,6.1494,6.1493,6.1493,0,6.1155,6.1212,6.1265,6.1309,6.1341,6.1407,6.1403,6.1436,6.1422,6.1424,6.1499,6.1517,6.1561,6.1582,6.1568,6.167,6.1652,6.1618,6.156,6.1664,6.1703,6.1719,6.1501,6.1499,6.1498,6.1497,0,0,6.1323,6.136,6.1379,6.1398,6.143,6.1472,6.1535,6.158,6.1608,6.1638,6.1688,6.1756,6.1724,6.1747,6.1735,6.1779,6.1879,6.1739,6.1739,6.1763,6.199,6.2015,6.2034,6.1861,6.1864,6.1866,6.1987,0,6.1448,6.1559,6.155,6.1654,6.1705,6.167,6.1724,6.1748,6.1752,6.1793,6.1796,6.1843,6.1799,6.1813,6.1854,6.1858,6.1924,6.1849,6.1905,6.1907,6.1898,6.2055,6.2081,6.2194,6.2003,6.2006,6.2008,0,6.1608,6.1646,6.1756,6.1778,6.1799,6.1848,6.1888,6.1929,6.1954,6.1953,6.1979,6.1959,6.202,6.1962,6.2044,6.1993,6.2015,6.202,6.2024,6.2027,6.1962,6.206,6.2231,6.2247,6.2032,6.203,6.2029,0,6.1717,6.1795,6.187,6.1887,6.1916,6.1951,6.1965,6.1987,6.2014,6.2048,6.2064,6.2104,6.2126,6.2156,6.2146,6.2105,6.2229,6.2171,6.2228,6.2228,6.2254,6.2252,6.2429,6.2272,6.2272,6.2271,6.2271,0,6.1856,6.1924,6.1919,6.1965,6.204,6.2027,6.21,6.2109,6.2129,6.2174,6.2146,6.2189,6.2175,6.2216,6.2209,6.2276,6.2286,6.2285,6.2282,6.2287,6.2287,6.23,6.2291,6.2276,6.2275,6.2274,6.2273,0,6.1989,6.1989,6.2069,6.209,6.2097,6.215,6.2167,6.2209,6.2211,6.2268,6.2281,6.2282,6.2329,6.2323,6.2375,6.237,6.2453,6.2441,6.2445,6.2442,6.2498,6.2492,6.2688,6.2712,6.2541,6.2543,6.2544,0,6.2077,6.2129,6.2156,6.2185,6.2201,6.2249,6.2276,6.2265,6.2295,6.2327,6.2365,6.241,6.2445,6.2521,6.2525,6.2564,6.2552,6.2617,6.2557,6.256,6.255,6.2547,6.255,6.2629,6.2631,6.2632,6.2633,0,6.2232,6.2229,6.2272,6.2314,6.2348,6.238,6.2409,6.2434,6.2425,6.2459,6.2508,6.2535,6.2589,6.2632,6.2669,6.268,6.2655,6.2653,6.2668,6.2672,6.2671,6.267,6.2475,6.2648,6.2646,6.2645,6.2645,6.2644,6.2344,6.2388,6.2413,6.246,6.2481,6.2509,6.2549,6.2556,6.2597,6.2641,6.2631,6.2685,6.2707,6.2754,6.2769,6.281,6.2785,6.2807,6.2813,6.2818,6.2824,6.2667,6.2816,6.2816,6.2816,6.2815,6.2815,0,6.2496,6.2511,6.2554,6.2596,6.2633,6.2608,6.2639,6.267,6.2719,6.2742,6.2778,6.2832,6.2875,6.2883,6.2922,6.2953,6.2942,6.2963,6.296,6.2962,6.2844,6.2826,6.2971,6.2971,6.2971,6.2971,6.2971,6.2971,6.2579,6.2651,6.2651,6.2732,6.2746,6.28,6.2819,6.2844,6.2862,6.2925,6.2961,6.2966,6.2983,6.3023,6.306,6.3061,6.3076,6.3102,6.3098,6.2987,6.2971,6.2956,6.2939,6.3106,6.3106,6.3212,6.3213,6.3214]}]]